EW7502 Weather Reports


Display with metric or nautical units.
time (UTC)temp
F
wind
direction
speed
MPH
gust
MPH
rain 1hr
in
rain 24hr
in
rain mn
in
humidity
%
barometer
mb
20260505124506 63 218 0.0 0.0 0.00 0.00 0.00 74 1010.7
20260505123002 60 195 0.0 0.0 0.00 0.00 0.00 85 1010.5
20260505121557 56 192 0.0 0.0 0.00 0.00 0.00 92 1010.7
20260505120109 54 209 0.0 0.0 0.00 0.00 0.00 92 1010.6
20260505114551 53 273 0.0 0.0 0.00 0.00 0.00 92 1010.6
20260505113050 51 273 0.0 0.0 0.00 0.00 0.00 92 1010.6
20260505111548 49 273 0.0 0.0 0.00 0.00 0.00 92 1010.5
20260505101541 47 211 0.0 0.0 0.00 0.00 0.00 91 1010.5
20260505100038 47 211 0.0 0.0 0.00 0.00 0.00 90 1010.2
20260505094536 47 211 0.0 0.0 0.00 0.00 0.00 90 1010.1
20260505093040 47 210 0.0 0.0 0.00 0.00 0.00 90 1009.9
20260505091535 48 210 0.0 0.0 0.00 0.00 0.00 90 1009.8
20260505090042 48 210 0.0 0.0 0.00 0.00 0.00 91 1009.8
20260505084534 48 210 0.0 0.0 0.00 0.00 0.00 90 1009.8
20260505083033 47 210 0.0 0.0 0.00 0.00 0.00 90 1009.8
20260505081538 47 210 0.0 0.0 0.00 0.00 0.00 89 1009.9
20260505080037 47 210 0.0 0.0 0.00 0.00 0.00 88 1010.0
20260505074529 47 210 0.0 0.0 0.00 0.00 0.00 87 1009.7
20260505073043 47 210 0.0 0.0 0.00 0.00 0.00 87 1009.7
20260505071525 48 210 0.0 0.0 0.00 0.00 0.00 86 1009.6
20260505070023 48 210 0.0 0.0 0.00 0.00 0.00 86 1009.7
20260505064535 49 210 0.0 0.0 0.00 0.00 0.00 85 1009.5
20260505063019 49 210 0.0 0.0 0.00 0.00 0.00 84 1009.6
20260505061529 50 210 0.0 0.0 0.00 0.00 0.00 83 1009.6
20260505060013 50 210 0.0 0.0 0.00 0.00 0.00 82 1009.6
20260505054511 51 210 0.0 0.0 0.00 0.00 0.00 81 1009.7
20260505053008 52 210 0.0 0.0 0.00 0.00 0.00 80 1009.8
20260505051507 53 210 0.0 0.0 0.00 0.00 0.00 79 1009.8
20260505041602 53 225 0.0 0.0 0.00 0.00 0.00 80 1009.8
20260505040057 53 229 0.0 0.0 0.00 0.00 0.00 80 1009.8
20260505034556 52 229 0.0 0.0 0.00 0.00 0.00 80 1009.9
20260505033055 52 188 0.0 0.0 0.00 0.00 0.00 79 1009.8
20260505031609 52 188 0.0 0.0 0.00 0.00 0.00 78 1010.0
20260505030054 52 187 0.0 0.0 0.00 0.00 0.00 77 1010.0
20260505024557 51 187 0.0 0.0 0.00 0.00 0.00 77 1010.1
20260505023111 51 189 0.0 0.0 0.00 0.00 0.00 76 1010.2
20260505021552 52 189 0.0 0.0 0.00 0.00 0.00 74 1010.2
20260505020053 52 198 0.0 0.0 0.00 0.00 0.00 72 1010.2
20260505014601 53 199 0.0 0.0 0.00 0.00 0.00 70 1010.2
20260505013105 55 199 0.0 0.0 0.00 0.00 0.00 68 1010.0
20260505011551 56 199 0.0 0.0 0.00 0.00 0.00 65 1009.8
20260505010049 58 199 0.0 0.0 0.00 0.00 0.00 61 1009.6
20260505004555 60 199 0.0 0.0 0.00 0.00 0.00 57 1009.4
20260505003048 63 199 0.0 0.0 0.00 0.00 0.00 52 1009.3
20260505001551 65 199 0.0 0.0 0.00 0.00 0.00 47 1009.2
20260505000105 66 199 0.0 0.0 0.00 0.00 0.00 44 1009.0
20260504234546 67 225 0.0 0.0 0.00 0.00 0.00 42 1008.9
20260504233148 68 225 0.0 0.0 0.00 0.00 0.00 40 1008.7
20260504231546 69 225 0.0 0.0 0.00 0.00 0.00 40 1008.6
20260504224544 70 241 0.0 0.0 0.00 0.00 0.00 37 1008.5
20260504223044 71 193 0.0 0.0 0.00 0.00 0.00 37 1008.6
20260504221554 71 162 0.0 0.0 0.00 0.00 0.00 37 1008.6
20260504220041 72 232 0.0 0.0 0.00 0.00 0.00 37 1008.7
20260504214540 72 236 0.0 0.0 0.00 0.00 0.00 35 1008.8
20260504213044 73 182 0.0 0.0 0.00 0.00 0.00 35 1008.8
20260504211544 73 173 0.0 0.0 0.00 0.00 0.00 36 1008.9
20260504210038 73 231 0.0 0.0 0.00 0.00 0.00 36 1009.0
20260504204539 74 164 0.0 0.0 0.00 0.00 0.00 33 1009.0
20260504203035 73 200 0.0 0.0 0.00 0.00 0.00 34 1008.9
20260504201533 73 182 0.0 0.0 0.00 0.00 0.00 34 1009.0
20260504200032 73 195 0.0 0.0 0.00 0.00 0.00 35 1009.0
20260504194531 74 227 0.0 0.0 0.00 0.00 0.00 33 1009.1
20260504193029 73 151 0.0 0.0 0.00 0.00 0.00 35 1009.2
20260504191527 73 193 0.0 0.0 0.00 0.00 0.00 34 1009.5
20260504190024 73 217 0.0 0.0 0.00 0.00 0.00 35 1009.8
20260504184522 73 165 0.0 0.0 0.00 0.00 0.00 34 1010.0
20260504183020 73 183 0.0 0.0 0.00 0.00 0.00 37 1010.2
20260504181518 73 235 0.0 0.0 0.00 0.00 0.00 34 1010.4
20260504180013 72 212 0.0 0.0 0.00 0.00 0.00 38 1010.6
20260504174511 71 204 0.0 0.0 0.00 0.00 0.00 37 1010.9
20260504173009 71 222 0.0 0.0 0.00 0.00 0.00 37 1010.9
20260504171507 71 173 0.0 0.0 0.00 0.00 0.00 37 1011.1